SWA2362 KHOU-KMCO

Flight info

Callsign SWA2362
Flight time 1h 52m
Altitude 37000
Route ELOCO6 LLA LEV Y280 CHRGE PRICY5
Aircraft B738/M-SADE2E3GIJ4RWZ/LB1D1

Departure

Time 2026-04-26 02:06
Airport William P. Hobby Airport (KHOU)

Arrival

Time 2026-04-26 03:58
Airport Orlando International Airport (KMCO)
Time Latitude Longitude Altitude Speed Heading
2026-04-26 01:27 29.65303 -95.27800 51 ft 0 kts 157°
2026-04-26 01:53 29.65306 -95.27802 51 ft 3 kts 157°
2026-04-26 01:54 29.65330 -95.27813 46 ft 2 kts 157°
2026-04-26 01:54 29.65348 -95.27820 48 ft 4 kts 205°
2026-04-26 01:54 29.65361 -95.27801 51 ft 4 kts 249°
2026-04-26 01:54 29.65366 -95.27786 51 ft 0 kts 249°
2026-04-26 02:00 29.65365 -95.27789 51 ft 5 kts 249°
2026-04-26 02:00 29.65343 -95.27853 51 ft 10 kts 248°
2026-04-26 02:01 29.65310 -95.27942 49 ft 11 kts 238°
2026-04-26 02:01 29.65262 -95.27982 51 ft 10 kts 187°
2026-04-26 02:01 29.65199 -95.27936 51 ft 12 kts 135°
2026-04-26 02:01 29.65143 -95.27853 51 ft 15 kts 104°
2026-04-26 02:02 29.65144 -95.27726 51 ft 17 kts 89°
2026-04-26 02:02 29.65146 -95.27579 51 ft 20 kts 89°
2026-04-26 02:02 29.65151 -95.27426 51 ft 15 kts 77°
2026-04-26 02:02 29.65225 -95.27327 51 ft 18 kts 44°
2026-04-26 02:03 29.65321 -95.27220 49 ft 21 kts 44°
2026-04-26 02:03 29.65421 -95.27109 51 ft 19 kts 44°
2026-04-26 02:03 29.65484 -95.27011 51 ft 15 kts 83°
2026-04-26 02:03 29.65475 -95.26964 51 ft 0 kts 118°
2026-04-26 02:04 29.65474 -95.26964 51 ft 1 kts 118°
2026-04-26 02:04 29.65446 -95.26923 51 ft 12 kts 135°
2026-04-26 02:05 29.65367 -95.26923 51 ft 17 kts 221°
2026-04-26 02:05 29.65184 -95.27123 51 ft 69 kts 224°
2026-04-26 02:05 29.64675 -95.27686 51 ft 132 kts 224°
2026-04-26 02:05 29.63906 -95.28542 210 ft 168 kts 224°
2026-04-26 02:06 29.63057 -95.29499 870 ft 168 kts 221°
2026-04-26 02:06 29.62228 -95.30356 1804 ft 153 kts 215°
2026-04-26 02:06 29.61362 -95.31155 2374 ft 170 kts 219°
2026-04-26 02:06 29.60449 -95.32156 2850 ft 187 kts 221°
2026-04-26 02:07 29.59508 -95.33132 3697 ft 184 kts 211°
2026-04-26 02:07 29.58207 -95.33441 3960 ft 207 kts 167°
2026-04-26 02:07 29.56957 -95.32500 4159 ft 233 kts 128°
2026-04-26 02:07 29.56307 -95.30709 4411 ft 258 kts 104°
2026-04-26 02:08 29.56276 -95.28583 4839 ft 275 kts 83°
2026-04-26 02:08 29.56659 -95.26390 5514 ft 284 kts 79°
2026-04-26 02:08 29.57094 -95.24163 6282 ft 287 kts 79°
2026-04-26 02:08 29.57531 -95.21914 6982 ft 291 kts 79°
2026-04-26 02:09 29.57962 -95.19618 7636 ft 297 kts 78°
2026-04-26 02:09 29.58386 -95.17289 8402 ft 298 kts 78°
2026-04-26 02:09 29.58801 -95.14946 9160 ft 301 kts 78°
2026-04-26 02:09 29.59210 -95.12599 9835 ft 306 kts 77°
2026-04-26 02:10 29.59630 -95.10149 10432 ft 315 kts 77°
2026-04-26 02:10 29.60066 -95.07587 10586 ft 339 kts 77°
2026-04-26 02:10 29.60523 -95.04885 10762 ft 359 kts 77°
2026-04-26 02:10 29.61003 -95.02022 11187 ft 369 kts 77°
2026-04-26 02:11 29.61488 -94.99107 11779 ft 374 kts 77°
2026-04-26 02:11 29.61977 -94.96156 12447 ft 377 kts 77°
2026-04-26 02:11 29.62469 -94.93187 13135 ft 380 kts 77°
2026-04-26 02:11 29.62964 -94.90189 13804 ft 384 kts 77°
2026-04-26 02:12 29.63465 -94.87156 14361 ft 389 kts 77°
2026-04-26 02:12 29.63973 -94.84076 14914 ft 396 kts 77°
2026-04-26 02:12 29.64488 -94.80951 15501 ft 401 kts 77°
2026-04-26 02:12 29.65009 -94.77782 16091 ft 406 kts 77°
2026-04-26 02:13 29.65537 -94.74569 16650 ft 412 kts 77°
2026-04-26 02:13 29.66071 -94.71314 17214 ft 417 kts 77°
2026-04-26 02:13 29.66610 -94.68016 17770 ft 422 kts 77°
2026-04-26 02:13 29.67156 -94.64677 18298 ft 428 kts 77°
2026-04-26 02:14 29.67708 -94.61294 18791 ft 432 kts 76°
2026-04-26 02:14 29.68262 -94.57890 19330 ft 435 kts 76°
2026-04-26 02:14 29.68819 -94.54459 19888 ft 438 kts 76°
2026-04-26 02:14 29.69380 -94.50999 20401 ft 442 kts 76°
2026-04-26 02:15 29.69945 -94.47515 20896 ft 445 kts 76°
2026-04-26 02:15 29.70514 -94.43997 21398 ft 449 kts 76°
2026-04-26 02:15 29.71087 -94.40451 21881 ft 453 kts 76°
2026-04-26 02:15 29.71656 -94.36874 22356 ft 457 kts 78°
2026-04-26 02:16 29.71938 -94.33206 22807 ft 465 kts 87°
2026-04-26 02:16 29.71699 -94.29475 23259 ft 470 kts 96°
2026-04-26 02:16 29.71249 -94.25736 23667 ft 474 kts 96°
2026-04-26 02:16 29.70771 -94.21969 24033 ft 477 kts 96°
2026-04-26 02:17 29.70305 -94.18183 24415 ft 480 kts 96°
2026-04-26 02:17 29.69858 -94.14365 24796 ft 483 kts 96°
2026-04-26 02:17 29.69426 -94.10531 25188 ft 485 kts 95°
2026-04-26 02:17 29.68995 -94.06670 25543 ft 488 kts 95°
2026-04-26 02:18 29.68600 -94.02784 25910 ft 490 kts 92°
2026-04-26 02:18 29.68457 -93.98859 26267 ft 492 kts 88°
2026-04-26 02:18 29.68429 -93.94919 26620 ft 494 kts 87°
2026-04-26 02:18 29.68443 -93.90959 26960 ft 497 kts 86°
2026-04-26 02:19 29.68459 -93.86975 27301 ft 500 kts 86°
2026-04-26 02:19 29.68462 -93.82969 27632 ft 503 kts 87°
2026-04-26 02:19 29.68447 -93.78941 27975 ft 505 kts 87°
2026-04-26 02:19 29.68418 -93.74890 28312 ft 508 kts 88°
2026-04-26 02:20 29.68378 -93.70815 28637 ft 510 kts 88°
2026-04-26 02:20 29.68333 -93.66728 28937 ft 513 kts 88°
2026-04-26 02:20 29.68285 -93.62615 29237 ft 516 kts 88°
2026-04-26 02:20 29.68236 -93.58482 29537 ft 518 kts 88°
2026-04-26 02:21 29.68186 -93.54329 29829 ft 520 kts 88°
2026-04-26 02:21 29.68135 -93.50165 30146 ft 521 kts 87°
2026-04-26 02:21 29.68083 -93.46003 30521 ft 520 kts 87°
2026-04-26 02:21 29.68031 -93.41847 30916 ft 519 kts 87°
2026-04-26 02:22 29.67977 -93.37702 31274 ft 518 kts 87°
2026-04-26 02:22 29.67923 -93.33554 31595 ft 519 kts 87°
2026-04-26 02:22 29.67867 -93.29405 31915 ft 519 kts 87°
2026-04-26 02:22 29.67810 -93.25260 32263 ft 519 kts 87°
2026-04-26 02:23 29.67752 -93.21116 32622 ft 518 kts 87°
2026-04-26 02:23 29.67693 -93.16976 32960 ft 518 kts 86°
2026-04-26 02:23 29.67632 -93.12840 33276 ft 518 kts 86°
2026-04-26 02:23 29.67570 -93.08702 33604 ft 518 kts 86°
2026-04-26 02:24 29.67507 -93.04565 33940 ft 517 kts 86°
2026-04-26 02:24 29.67442 -93.00434 34227 ft 517 kts 86°
2026-04-26 02:24 29.67376 -92.96300 34475 ft 517 kts 86°
2026-04-26 02:24 29.67309 -92.92158 34708 ft 518 kts 86°
2026-04-26 02:25 29.67241 -92.88017 34957 ft 519 kts 86°
2026-04-26 02:25 29.67171 -92.83874 35214 ft 518 kts 86°
2026-04-26 02:25 29.67100 -92.79727 35464 ft 519 kts 86°
2026-04-26 02:25 29.67028 -92.75580 35696 ft 519 kts 86°
2026-04-26 02:26 29.66954 -92.71427 35926 ft 520 kts 86°
2026-04-26 02:26 29.66879 -92.67270 36143 ft 520 kts 86°
2026-04-26 02:26 29.66802 -92.63108 36396 ft 521 kts 86°
2026-04-26 02:26 29.66751 -92.60359 36568 ft 520 kts 86°
2026-04-26 02:27 29.66672 -92.56202 36820 ft 520 kts 86°
2026-04-26 02:27 29.66511 -92.47853 36892 ft 525 kts 86°
2026-04-26 02:28 29.66337 -92.39458 36885 ft 523 kts 88°
2026-04-26 02:28 29.65201 -92.31203 36897 ft 524 kts 101°
2026-04-26 02:29 29.63440 -92.23080 36885 ft 524 kts 101°
2026-04-26 02:29 29.61678 -92.14966 36888 ft 522 kts 101°
2026-04-26 02:30 29.59969 -92.06857 36899 ft 522 kts 101°
2026-04-26 02:30 29.58283 -91.98749 36896 ft 522 kts 101°
2026-04-26 02:31 29.56593 -91.90634 36914 ft 523 kts 101°
2026-04-26 02:31 29.54890 -91.82502 36899 ft 524 kts 101°
2026-04-26 02:32 29.53178 -91.74364 36892 ft 525 kts 101°
2026-04-26 02:32 29.51470 -91.66277 36901 ft 524 kts 101°
2026-04-26 02:33 29.49746 -91.58133 36905 ft 525 kts 101°
2026-04-26 02:33 29.48015 -91.49988 36922 ft 526 kts 101°
2026-04-26 02:34 29.46277 -91.41832 36897 ft 526 kts 101°
2026-04-26 02:34 29.44533 -91.33677 36907 ft 526 kts 101°
2026-04-26 02:35 29.42785 -91.25527 36905 ft 526 kts 101°
2026-04-26 02:35 29.41032 -91.17379 36907 ft 526 kts 101°
2026-04-26 02:36 29.39276 -91.09244 36912 ft 526 kts 102°
2026-04-26 02:36 29.37515 -91.01113 36908 ft 525 kts 102°
2026-04-26 02:37 29.35753 -90.93001 36907 ft 524 kts 102°
2026-04-26 02:37 29.33988 -90.84898 36909 ft 523 kts 102°
2026-04-26 02:38 29.32221 -90.76817 36908 ft 523 kts 102°
2026-04-26 02:38 29.30450 -90.68739 36911 ft 522 kts 102°
2026-04-26 02:39 29.28676 -90.60672 36910 ft 522 kts 102°
2026-04-26 02:39 29.26900 -90.52617 36914 ft 522 kts 102°
2026-04-26 02:40 29.25116 -90.44553 36918 ft 522 kts 102°
2026-04-26 02:40 29.23329 -90.36501 36930 ft 522 kts 102°
2026-04-26 02:41 29.21534 -90.28441 36922 ft 523 kts 102°
2026-04-26 02:41 29.19733 -90.20373 36921 ft 524 kts 102°
2026-04-26 02:42 29.17925 -90.12296 36919 ft 524 kts 102°
2026-04-26 02:42 29.16178 -90.04193 36917 ft 525 kts 101°
2026-04-26 02:43 29.13735 -89.91985 36915 ft 525 kts 100°
2026-04-26 02:43 29.12102 -89.83894 36917 ft 526 kts 101°
2026-04-26 02:44 29.10436 -89.75755 36917 ft 526 kts 101°
2026-04-26 02:44 29.08760 -89.67620 36920 ft 525 kts 101°
2026-04-26 02:45 29.07082 -89.59494 36917 ft 525 kts 101°
2026-04-26 02:45 29.05402 -89.51380 36920 ft 525 kts 101°
2026-04-26 02:46 29.03718 -89.43272 36920 ft 524 kts 101°
2026-04-26 02:46 29.02030 -89.35167 36923 ft 524 kts 101°
2026-04-26 02:47 29.00337 -89.27069 36925 ft 524 kts 101°
2026-04-26 02:47 28.98642 -89.18986 36937 ft 523 kts 101°
2026-04-26 02:48 28.96941 -89.10902 36920 ft 523 kts 101°
2026-04-26 02:48 28.95238 -89.02829 36898 ft 523 kts 101°
2026-04-26 02:49 28.93532 -88.94769 36923 ft 522 kts 101°
2026-04-26 02:49 28.91822 -88.86715 36930 ft 522 kts 101°
2026-04-26 02:50 28.90109 -88.78671 36938 ft 522 kts 101°
2026-04-26 02:50 28.88388 -88.70618 36930 ft 522 kts 102°
2026-04-26 02:51 28.86350 -88.62660 36931 ft 523 kts 106°
2026-04-26 02:51 28.84091 -88.54765 36930 ft 523 kts 106°
2026-04-26 02:52 28.81851 -88.46868 36957 ft 523 kts 105°
2026-04-26 02:52 28.79666 -88.39017 36942 ft 523 kts 105°
2026-04-26 02:53 28.77474 -88.31116 36931 ft 522 kts 105°
2026-04-26 02:53 28.75278 -88.23233 36934 ft 521 kts 105°
2026-04-26 02:54 28.73079 -88.15364 36938 ft 521 kts 106°
2026-04-26 02:54 28.70879 -88.07514 36948 ft 520 kts 106°
2026-04-26 02:55 28.68672 -87.99681 36943 ft 519 kts 106°
2026-04-26 02:55 28.66459 -87.91855 36937 ft 518 kts 106°
2026-04-26 02:56 28.64248 -87.84046 36906 ft 518 kts 106°
2026-04-26 02:56 28.62038 -87.76259 36932 ft 517 kts 106°
2026-04-26 02:57 28.59823 -87.68471 36962 ft 517 kts 106°
2026-04-26 02:57 28.57602 -87.60680 36944 ft 518 kts 106°
2026-04-26 02:58 28.55372 -87.52875 36936 ft 519 kts 106°
2026-04-26 02:58 28.53136 -87.45073 36936 ft 519 kts 106°
2026-04-26 02:59 28.50896 -87.37273 36939 ft 519 kts 106°
2026-04-26 02:59 28.48649 -87.29470 36955 ft 519 kts 106°
2026-04-26 03:00 28.46396 -87.21664 36937 ft 519 kts 106°
2026-04-26 03:00 28.44142 -87.13870 36947 ft 519 kts 106°
2026-04-26 03:01 28.41886 -87.06093 36938 ft 518 kts 106°
2026-04-26 03:01 28.39628 -86.98322 36939 ft 518 kts 107°
2026-04-26 03:02 28.37369 -86.90566 36946 ft 517 kts 106°
2026-04-26 03:02 28.35108 -86.82824 36937 ft 516 kts 106°
2026-04-26 03:03 28.32847 -86.75096 36921 ft 516 kts 106°
2026-04-26 03:03 28.30585 -86.67380 36938 ft 515 kts 106°
2026-04-26 03:04 28.28345 -86.59716 36942 ft 515 kts 106°
2026-04-26 03:04 28.26088 -86.52002 36953 ft 515 kts 106°
2026-04-26 03:05 28.23812 -86.44238 36936 ft 516 kts 106°
2026-04-26 03:05 28.21559 -86.36575 36938 ft 515 kts 106°
2026-04-26 03:06 28.19271 -86.28816 36938 ft 515 kts 106°
2026-04-26 03:06 28.17010 -86.21164 36938 ft 515 kts 106°
2026-04-26 03:07 28.14731 -86.13469 36954 ft 515 kts 106°
2026-04-26 03:07 28.12453 -86.05793 36933 ft 514 kts 106°
2026-04-26 03:08 28.10175 -85.98140 36934 ft 512 kts 106°
2026-04-26 03:08 28.07901 -85.90512 36936 ft 510 kts 106°
2026-04-26 03:09 28.05631 -85.82915 36941 ft 509 kts 106°
2026-04-26 03:09 28.04496 -85.79125 36836 ft 511 kts 107°
2026-04-26 03:09 28.03349 -85.75295 36562 ft 515 kts 107°
2026-04-26 03:10 28.02200 -85.71464 36318 ft 513 kts 107°
2026-04-26 03:10 28.01054 -85.67649 36060 ft 512 kts 107°
2026-04-26 03:10 27.99907 -85.63838 35807 ft 511 kts 107°
2026-04-26 03:10 27.98760 -85.60027 35548 ft 512 kts 107°
2026-04-26 03:11 27.97613 -85.56221 35317 ft 512 kts 107°
2026-04-26 03:11 27.96463 -85.52409 35076 ft 512 kts 107°
2026-04-26 03:11 27.95311 -85.48596 34843 ft 512 kts 107°
2026-04-26 03:11 27.94158 -85.44783 34612 ft 513 kts 107°
2026-04-26 03:12 27.93001 -85.40961 34383 ft 513 kts 107°
2026-04-26 03:12 27.91843 -85.37140 34156 ft 514 kts 107°
2026-04-26 03:12 27.90685 -85.33322 33935 ft 514 kts 107°
2026-04-26 03:12 27.89523 -85.29493 33670 ft 515 kts 107°
2026-04-26 03:13 27.88384 -85.25659 33404 ft 514 kts 104°
2026-04-26 03:13 27.87539 -85.21745 33146 ft 512 kts 98°
2026-04-26 03:13 27.86885 -85.17793 32893 ft 511 kts 97°
2026-04-26 03:13 27.86284 -85.13836 32638 ft 511 kts 96°
2026-04-26 03:14 27.85681 -85.09880 32387 ft 511 kts 97°
2026-04-26 03:14 27.85267 -85.07261 32222 ft 511 kts 97°
2026-04-26 03:14 27.84621 -85.03307 31988 ft 511 kts 98°
2026-04-26 03:14 27.83958 -84.99366 31744 ft 510 kts 98°
2026-04-26 03:15 27.83286 -84.95433 31498 ft 510 kts 98°
2026-04-26 03:15 27.82398 -84.90234 31180 ft 508 kts 98°
2026-04-26 03:15 27.81730 -84.86315 30936 ft 508 kts 98°
2026-04-26 03:15 27.81153 -84.82392 30689 ft 505 kts 91°
2026-04-26 03:16 27.81107 -84.79727 30527 ft 502 kts 84°
2026-04-26 03:16 27.81287 -84.75793 30311 ft 502 kts 82°
2026-04-26 03:16 27.81555 -84.71856 30079 ft 504 kts 81°
2026-04-26 03:16 27.81836 -84.67907 29821 ft 506 kts 82°
2026-04-26 03:17 27.82097 -84.63936 29563 ft 507 kts 82°
2026-04-26 03:17 27.82324 -84.60018 29296 ft 506 kts 83°
2026-04-26 03:17 27.82527 -84.56079 29015 ft 499 kts 83°
2026-04-26 03:17 27.82711 -84.52188 28743 ft 493 kts 83°
2026-04-26 03:18 27.82888 -84.48325 28487 ft 492 kts 83°
2026-04-26 03:18 27.83064 -84.44467 28228 ft 491 kts 83°
2026-04-26 03:18 27.83240 -84.40623 27973 ft 489 kts 83°
2026-04-26 03:18 27.83415 -84.36789 27715 ft 488 kts 83°
2026-04-26 03:19 27.83590 -84.32968 27459 ft 487 kts 83°
2026-04-26 03:19 27.83764 -84.29156 27207 ft 485 kts 83°
2026-04-26 03:19 27.83937 -84.25360 26969 ft 483 kts 83°
2026-04-26 03:19 27.84107 -84.21587 26717 ft 480 kts 83°
2026-04-26 03:20 27.84275 -84.17832 26473 ft 477 kts 83°
2026-04-26 03:20 27.84442 -84.14099 26231 ft 474 kts 83°
2026-04-26 03:20 27.84606 -84.10384 25988 ft 472 kts 83°
2026-04-26 03:20 27.84769 -84.06696 25747 ft 469 kts 83°
2026-04-26 03:21 27.84930 -84.03020 25514 ft 467 kts 83°
2026-04-26 03:21 27.85090 -83.99362 25279 ft 465 kts 84°
2026-04-26 03:21 27.85248 -83.95723 25046 ft 463 kts 84°
2026-04-26 03:21 27.85404 -83.92092 24815 ft 461 kts 84°
2026-04-26 03:22 27.85558 -83.88480 24604 ft 460 kts 83°
2026-04-26 03:22 27.85709 -83.84879 24377 ft 458 kts 83°
2026-04-26 03:22 27.85858 -83.81288 24151 ft 456 kts 83°
2026-04-26 03:22 27.86005 -83.77714 24006 ft 454 kts 83°
2026-04-26 03:23 27.86153 -83.74144 23967 ft 455 kts 83°
2026-04-26 03:23 27.86299 -83.70580 23961 ft 454 kts 83°
2026-04-26 03:23 27.86444 -83.67020 23951 ft 454 kts 83°
2026-04-26 03:23 27.86589 -83.63455 23948 ft 454 kts 83°
2026-04-26 03:24 27.86733 -83.59888 23950 ft 454 kts 83°
2026-04-26 03:24 27.86875 -83.56321 23950 ft 454 kts 83°
2026-04-26 03:24 27.87017 -83.52758 23960 ft 454 kts 83°
2026-04-26 03:24 27.87158 -83.49188 23951 ft 455 kts 84°
2026-04-26 03:25 27.87298 -83.45616 23959 ft 456 kts 84°
2026-04-26 03:25 27.87437 -83.42029 23959 ft 457 kts 84°
2026-04-26 03:25 27.87576 -83.38442 23956 ft 457 kts 84°
2026-04-26 03:25 27.87714 -83.34853 23957 ft 458 kts 84°
2026-04-26 03:26 27.87851 -83.31255 23951 ft 458 kts 84°
2026-04-26 03:26 27.87988 -83.27660 23955 ft 458 kts 84°
2026-04-26 03:26 27.88101 -83.24057 23833 ft 459 kts 85°
2026-04-26 03:26 27.88131 -83.20460 23601 ft 456 kts 86°
2026-04-26 03:27 27.88118 -83.16886 23351 ft 454 kts 86°
2026-04-26 03:27 27.88097 -83.13324 23103 ft 453 kts 87°
2026-04-26 03:27 27.88081 -83.09760 22844 ft 453 kts 87°
2026-04-26 03:27 27.88073 -83.06202 22586 ft 453 kts 87°
2026-04-26 03:28 27.88071 -83.02645 22327 ft 452 kts 86°
2026-04-26 03:28 27.88072 -82.99106 22070 ft 450 kts 86°
2026-04-26 03:28 27.88074 -82.95577 21817 ft 448 kts 86°
2026-04-26 03:28 27.88075 -82.92061 21569 ft 446 kts 86°
2026-04-26 03:29 27.88076 -82.88573 21322 ft 443 kts 86°
2026-04-26 03:29 27.88075 -82.85103 21086 ft 439 kts 86°
2026-04-26 03:29 27.88074 -82.81668 21016 ft 437 kts 86°
2026-04-26 03:29 27.88072 -82.78234 20996 ft 436 kts 86°
2026-04-26 03:30 27.88069 -82.74811 21004 ft 436 kts 87°
2026-04-26 03:30 27.88066 -82.71379 20992 ft 436 kts 87°
2026-04-26 03:30 27.88061 -82.67949 20988 ft 436 kts 87°
2026-04-26 03:30 27.88041 -82.64564 20887 ft 437 kts 88°
2026-04-26 03:31 27.87992 -82.61137 20752 ft 435 kts 88°
2026-04-26 03:31 27.87934 -82.57725 20613 ft 434 kts 88°
2026-04-26 03:31 27.87876 -82.54320 20483 ft 433 kts 88°
2026-04-26 03:31 27.87821 -82.50925 20357 ft 432 kts 88°
2026-04-26 03:32 27.87769 -82.47531 20230 ft 432 kts 88°
2026-04-26 03:32 27.87717 -82.44181 20089 ft 420 kts 88°
2026-04-26 03:32 27.87858 -82.40949 19920 ft 403 kts 74°
2026-04-26 03:32 27.88775 -82.38033 19640 ft 389 kts 62°
2026-04-26 03:33 27.89901 -82.35282 19335 ft 384 kts 62°
2026-04-26 03:33 27.91031 -82.32556 19050 ft 381 kts 62°
2026-04-26 03:33 27.92143 -82.29856 18749 ft 377 kts 62°
2026-04-26 03:33 27.93243 -82.27163 18445 ft 377 kts 62°
2026-04-26 03:34 27.94340 -82.24457 18122 ft 379 kts 62°
2026-04-26 03:34 27.95433 -82.21742 17783 ft 379 kts 62°
2026-04-26 03:34 27.96518 -82.19036 17459 ft 377 kts 62°
2026-04-26 03:34 27.97595 -82.16344 17155 ft 375 kts 62°
2026-04-26 03:35 27.98666 -82.13664 16855 ft 373 kts 62°
2026-04-26 03:35 27.99733 -82.10992 16561 ft 372 kts 62°
2026-04-26 03:35 28.00794 -82.08332 16260 ft 370 kts 62°
2026-04-26 03:35 28.01853 -82.05679 15970 ft 369 kts 62°
2026-04-26 03:36 28.02902 -82.03047 15674 ft 364 kts 62°
2026-04-26 03:36 28.03934 -82.00453 15382 ft 359 kts 62°
2026-04-26 03:36 28.04948 -81.97905 15100 ft 353 kts 62°
2026-04-26 03:36 28.05954 -81.95391 14815 ft 348 kts 62°
2026-04-26 03:37 28.06958 -81.92923 14540 ft 343 kts 62°
2026-04-26 03:37 28.07953 -81.90484 14277 ft 339 kts 62°
2026-04-26 03:37 28.08936 -81.88077 14011 ft 335 kts 61°
2026-04-26 03:37 28.09983 -81.85750 13744 ft 330 kts 58°
2026-04-26 03:38 28.11060 -81.83472 13455 ft 326 kts 58°
2026-04-26 03:38 28.12124 -81.81216 13176 ft 323 kts 58°
2026-04-26 03:38 28.13172 -81.78980 12890 ft 320 kts 59°
2026-04-26 03:38 28.14208 -81.76766 12630 ft 317 kts 59°
2026-04-26 03:39 28.15236 -81.74565 12374 ft 315 kts 59°
2026-04-26 03:39 28.16257 -81.72377 12117 ft 313 kts 59°
2026-04-26 03:39 28.17270 -81.70205 11873 ft 311 kts 59°
2026-04-26 03:39 28.18278 -81.68042 11620 ft 310 kts 59°
2026-04-26 03:40 28.19283 -81.65883 11382 ft 309 kts 59°
2026-04-26 03:40 28.20284 -81.63732 11140 ft 309 kts 59°
2026-04-26 03:40 28.21285 -81.61579 10896 ft 308 kts 60°
2026-04-26 03:40 28.22284 -81.59431 10646 ft 308 kts 60°
2026-04-26 03:41 28.23281 -81.57284 10398 ft 308 kts 60°
2026-04-26 03:41 28.24272 -81.55150 10163 ft 305 kts 60°
2026-04-26 03:41 28.25291 -81.53059 9918 ft 301 kts 54°
2026-04-26 03:41 28.26506 -81.51153 9668 ft 296 kts 50°
2026-04-26 03:42 28.27752 -81.49308 9420 ft 293 kts 50°
2026-04-26 03:42 28.28953 -81.47498 9186 ft 289 kts 51°
2026-04-26 03:42 28.30146 -81.45671 8959 ft 287 kts 51°
2026-04-26 03:42 28.31353 -81.43877 8728 ft 284 kts 44°
2026-04-26 03:43 28.32964 -81.42692 8497 ft 274 kts 14°
2026-04-26 03:43 28.34802 -81.42331 8313 ft 265 kts 359°
2026-04-26 03:43 28.36628 -81.42311 8108 ft 261 kts 356°
2026-04-26 03:43 28.38433 -81.42346 7872 ft 259 kts 356°
2026-04-26 03:44 28.40230 -81.42375 7621 ft 258 kts 356°
2026-04-26 03:44 28.42017 -81.42394 7389 ft 256 kts 356°
2026-04-26 03:44 28.43797 -81.42405 7150 ft 255 kts 357°
2026-04-26 03:44 28.45570 -81.42411 6906 ft 255 kts 357°
2026-04-26 03:45 28.47341 -81.42414 6654 ft 254 kts 357°
2026-04-26 03:45 28.49108 -81.42415 6414 ft 254 kts 358°
2026-04-26 03:45 28.50870 -81.42415 6160 ft 253 kts 358°
2026-04-26 03:45 28.52614 -81.42425 6023 ft 247 kts 356°
2026-04-26 03:46 28.54296 -81.42500 5992 ft 238 kts 355°
2026-04-26 03:46 28.55945 -81.42598 5992 ft 237 kts 354°
2026-04-26 03:46 28.57587 -81.42705 5990 ft 236 kts 354°
2026-04-26 03:47 28.60875 -81.42921 5995 ft 238 kts 354°
2026-04-26 03:47 28.62527 -81.43026 6006 ft 238 kts 354°
2026-04-26 03:47 28.64189 -81.43129 6001 ft 239 kts 354°
2026-04-26 03:47 28.65853 -81.43222 5991 ft 240 kts 355°
2026-04-26 03:48 28.67519 -81.43310 5985 ft 240 kts 355°
2026-04-26 03:48 28.69180 -81.43394 5985 ft 238 kts 355°
2026-04-26 03:48 28.70832 -81.43472 5980 ft 237 kts 355°
2026-04-26 03:48 28.72468 -81.43292 5964 ft 239 kts 18°
2026-04-26 03:49 28.73979 -81.42478 5991 ft 243 kts 26°
2026-04-26 03:49 28.75473 -81.41560 5984 ft 245 kts 27°
2026-04-26 03:49 28.76944 -81.40568 5976 ft 248 kts 38°
2026-04-26 03:49 28.78012 -81.39044 5972 ft 249 kts 68°
2026-04-26 03:50 28.78263 -81.37130 5974 ft 245 kts 98°
2026-04-26 03:50 28.77980 -81.35221 5989 ft 244 kts 103°
2026-04-26 03:50 28.77631 -81.33327 5978 ft 244 kts 104°
2026-04-26 03:50 28.77114 -81.31494 5981 ft 242 kts 117°
2026-04-26 03:51 28.76287 -81.29847 5982 ft 238 kts 131°
2026-04-26 03:51 28.74973 -81.28809 5941 ft 231 kts 168°
2026-04-26 03:51 28.73358 -81.28611 5630 ft 236 kts 180°
2026-04-26 03:51 28.71710 -81.28556 5301 ft 238 kts 181°
2026-04-26 03:52 28.70059 -81.28524 4995 ft 235 kts 181°
2026-04-26 03:52 28.68476 -81.28504 4701 ft 226 kts 181°
2026-04-26 03:52 28.66937 -81.28488 4389 ft 218 kts 181°
2026-04-26 03:52 28.65435 -81.28474 4093 ft 214 kts 180°
2026-04-26 03:53 28.63965 -81.28459 3813 ft 209 kts 180°
2026-04-26 03:53 28.62539 -81.28444 3541 ft 201 kts 181°
2026-04-26 03:53 28.61161 -81.28431 3300 ft 196 kts 180°
2026-04-26 03:53 28.59810 -81.28417 3041 ft 193 kts 180°
2026-04-26 03:54 28.58480 -81.28403 2793 ft 189 kts 180°
2026-04-26 03:54 28.57192 -81.28390 2541 ft 180 kts 180°
2026-04-26 03:54 28.55976 -81.28377 2316 ft 170 kts 179°
2026-04-26 03:54 28.54832 -81.28366 2097 ft 159 kts 179°
2026-04-26 03:55 28.53767 -81.28355 1950 ft 150 kts 179°
2026-04-26 03:55 28.52720 -81.28344 1717 ft 149 kts 179°
2026-04-26 03:55 28.51702 -81.28332 1548 ft 146 kts 179°
2026-04-26 03:55 28.50668 -81.28332 1345 ft 150 kts 179°
2026-04-26 03:56 28.49617 -81.28323 1144 ft 152 kts 178°
2026-04-26 03:56 28.48559 -81.28305 940 ft 152 kts 178°
2026-04-26 03:56 28.47513 -81.28293 738 ft 149 kts 178°
2026-04-26 03:56 28.46485 -81.28277 546 ft 146 kts 178°
2026-04-26 03:57 28.45478 -81.28266 362 ft 143 kts 179°
2026-04-26 03:57 28.44491 -81.28254 181 ft 141 kts 179°
2026-04-26 03:57 28.43543 -81.28247 95 ft 120 kts 180°
2026-04-26 03:57 28.42922 -81.28241 96 ft 58 kts 179°
2026-04-26 03:58 28.42651 -81.28248 96 ft 34 kts 189°
2026-04-26 03:58 28.42539 -81.28316 98 ft 13 kts 228°
2026-04-26 03:58 28.42526 -81.28346 97 ft 3 kts 249°
2026-04-26 03:58 28.42516 -81.28376 95 ft 5 kts 249°
2026-04-26 03:59 28.42503 -81.28415 95 ft 6 kts 251°
2026-04-26 03:59 28.42490 -81.28458 94 ft 6 kts 251°
2026-04-26 03:59 28.42477 -81.28501 96 ft 6 kts 251°
2026-04-26 03:59 28.42464 -81.28543 96 ft 6 kts 250°
2026-04-26 04:00 28.42448 -81.28595 97 ft 12 kts 250°
2026-04-26 04:00 28.42410 -81.28716 98 ft 15 kts 250°
2026-04-26 04:00 28.42388 -81.28782 102 ft 7 kts 251°
2026-04-26 04:00 28.42364 -81.28863 104 ft 18 kts 251°
2026-04-26 04:01 28.42319 -81.29010 98 ft 20 kts 250°
2026-04-26 04:01 28.42287 -81.29177 95 ft 22 kts 266°
2026-04-26 04:01 28.42285 -81.29343 100 ft 20 kts 269°
2026-04-26 04:01 28.42283 -81.29477 94 ft 9 kts 268°
2026-04-26 04:02 28.42283 -81.29522 93 ft 9 kts 270°
2026-04-26 04:02 28.42282 -81.29610 93 ft 18 kts 270°
2026-04-26 04:02 28.42300 -81.29691 94 ft 10 kts 324°
2026-04-26 04:02 28.42365 -81.29700 96 ft 9 kts 358°
2026-04-26 04:03 28.42452 -81.29700 95 ft 18 kts 359°
2026-04-26 04:03 28.42586 -81.29703 96 ft 20 kts
2026-04-26 04:03 28.42725 -81.29704 94 ft 20 kts 357°
2026-04-26 04:03 28.42863 -81.29706 96 ft 20 kts 359°
2026-04-26 04:04 28.43000 -81.29707 94 ft 20 kts 360°
2026-04-26 04:04 28.43159 -81.29709 95 ft 25 kts 359°
2026-04-26 04:04 28.43328 -81.29710 96 ft 22 kts 360°
2026-04-26 04:04 28.43449 -81.29711 96 ft 16 kts 359°
2026-04-26 04:05 28.43543 -81.29733 97 ft 13 kts 311°
2026-04-26 04:05 28.43549 -81.29830 94 ft 12 kts 270°
2026-04-26 04:05 28.43539 -81.29911 94 ft 8 kts 246°
2026-04-26 04:05 28.43531 -81.29937 94 ft 2 kts 265°
2026-04-26 04:06 28.43534 -81.29952 94 ft 2 kts 290°
2026-04-26 04:06 28.43549 -81.29977 96 ft 6 kts 311°
2026-04-26 04:06 28.43556 -81.30026 95 ft 6 kts 252°
2026-04-26 04:06 28.43550 -81.30048 95 ft 2 kts 253°
2026-04-26 04:07 28.43548 -81.30058 96 ft 1 kts 253°
2026-04-26 04:07 28.43547 -81.30059 96 ft 0 kts 253°